This is the latest recevied weather packets stored in our database for station/object OE6JUE. If no packets are shown the sender has not sent any weather packets the latest 10 day(s).
| Time | Temp. | Humidity | Pressure | Rain* | Wind** | Luminosity | Snow |
|---|---|---|---|---|---|---|---|
| 1777580511 | 5.56° C | 50% | 1029 hPa | 0 mm | - | - | - |
| 1777580211 | 5.56° C | 50% | 1028.9 hPa | 0 mm | - | - | - |
| 1777579911 | 5.56° C | 49% | 1029 hPa | 0 mm | - | - | - |
| 1777579610 | 6.11° C | 49% | 1028.9 hPa | 0 mm | - | - | - |
| 1777579311 | 6.11° C | 49% | 1028.8 hPa | - | - | - | - |
| 1777579011 | 6.11° C | 49% | 1028.7 hPa | 0 mm | - | - | - |
| 1777578711 | 6.67° C | 47% | 1028.8 hPa | 0 mm | - | - | - |
| 1777578411 | 6.67° C | 47% | 1028.7 hPa | 0 mm | - | - | - |
| 1777578111 | 6.67° C | 46% | 1028.7 hPa | 0 mm | - | - | - |
| 1777577811 | 6.67° C | 45% | 1028.7 hPa | 0 mm | - | - | - |
| 1777577511 | 7.22° C | 43% | 1028.6 hPa | 0 mm | - | - | - |
| 1777577105 | 7.78° C | 38% | 1028.4 hPa | 0 mm | - | - | - |
| 1777576804 | 8.33° C | 36% | 1028.3 hPa | 0 mm | - | - | - |
| 1777576504 | 8.33° C | 35% | 1028.3 hPa | 0 mm | - | - | - |
| 1777576204 | 8.89° C | 35% | 1028.3 hPa | 0 mm | - | - | - |
| 1777575905 | 8.89° C | 33% | 1028.2 hPa | 0 mm | - | - | - |
| 1777575604 | 10° C | 32% | 1028.2 hPa | - | - | - | - |
| 1777575304 | 10° C | 32% | 1028.1 hPa | 0 mm | - | - | - |
| 1777575004 | 10.56° C | 30% | 1028.1 hPa | 0 mm | - | - | - |
| 1777574704 | 10.56° C | 30% | 1027.9 hPa | 0 mm | - | - | - |
| 1777574404 | 11.11° C | 30% | 1027.9 hPa | 0 mm | - | - | - |
| 1777574104 | 11.11° C | 30% | 1027.8 hPa | 0 mm | - | - | - |
| 1777573804 | 11.11° C | 30% | 1027.8 hPa | 0 mm | - | - | - |
| 1777573504 | 11.67° C | 30% | 1027.7 hPa | 0 mm | - | - | - |
| 1777573204 | 11.67° C | 30% | 1027.7 hPa | 0 mm | - | - | - |
* Rain latest hour (hover to see other rain measurements)
** Current wind speed in m/s (hover to see current wind gust speed)